Content
SEND FEEDBACK

Daily
Averages
Monthly
Summary
United States of America

ST. LOUIS, MISSOURI


Home > North America > United States > Missouri
Elevation: 163 meters     Latitude: 38 45N     Longitude: 090 22W

WEATHER
 
SELECT A DAY
Number of Records: 200,528;   Date Range: 1/1/95 - 11/23/14
 
SHARE

PRINT THIS DATA

[ ← Previous Day ]
WEATHER ALMANAC - 19 JUNE, 2013
[ Next Day → ]
[ °F ]   °C
Weather ElementAverageHighLow
Temperature23.6 °C30.6 °C (3:54 pm)17.2 °C (4:54 am)
Dewpoint17.2 °C19.4 °C (9:54 pm)15 °C (5:54 pm)
Humidity70.4 %93 % (2:54 am)40 % (3:54 pm)
Barometer1016.3 hPa1017.6 hPa (8:54 am)1014.6 hPa (1:54 am)
Wind Speed3.4 km/h11.1 km/h (2:54 pm)
Weather ElementAverage
Visibility15.9 km
Wind DirectionENE (58.3 °)

Weather ElementTotal
Precipitation---
Cooling Degree Days5.6 (Base 18.3)
Growing Degree Days13.9 (Base 10)
Averaged from 23 records on 19 June, 2013
WEATHER CONDITIONS BREAKOUT
WIND DIRECTION BREAKOUT
WEATHER BY HOUR - 19 JUNE, 2013
[ °F ]   °C
Local TimeTemperatureDewpointHumidityBarometerVisibilityWind DirectionWind SpeedGust SpeedPrecipitationEventsConditions
1:54 AM18.3 °C16.7 °C90 %1014.6 hPa16.1 kmCalmClear
2:54 AM17.8 °C16.7 °C93 %1015.2 hPa16.1 kmCalmClear
3:54 AM17.8 °C16.7 °C93 %1015.2 hPa16.1 kmCalmClear
4:54 AM17.2 °C16.1 °C93 %1015.6 hPa14.5 kmCalmClear
5:54 AM17.8 °C16.1 °C90 %1016.3 hPa12.9 kmCalmClear
6:54 AM20 °C16.7 °C81 %1016.9 hPa16.1 kmNNE (30°)5.6 km/hClear
7:54 AM21.1 °C17.2 °C78 %1017.3 hPa16.1 kmCalmMostly Cloudy
8:54 AM21.7 °C17.8 °C78 %1017.6 hPa16.1 kmEast (90°)7.4 km/hMostly Cloudy
9:54 AM23.3 °C18.3 °C73 %1017.6 hPa16.1 kmESE (110°)7.4 km/hClear
10:54 AM25.6 °C18.3 °C64 %1017.6 hPa16.1 kmCalmClear
11:54 AM26.7 °C18.9 °C62 %1017.6 hPa16.1 kmENE (70°)7.4 km/hScattered Clouds
12:54 PM27.2 °C18.9 °C60 %1017.3 hPa16.1 kmVariable9.3 km/hScattered Clouds
1:54 PM28.3 °C17.2 °C51 %1016.6 hPa16.1 kmCalmScattered Clouds
2:54 PM28.9 °C16.1 °C46 %1016.3 hPa16.1 kmEast (80°)11.1 km/hMostly Cloudy
3:54 PM30.6 °C15.6 °C40 %1015.9 hPa16.1 kmNorth (360°)5.6 km/hClear
4:54 PM29.4 °C15.6 °C43 %1016.3 hPa16.1 kmVariable9.3 km/hClear
5:54 PM29.4 °C15 °C41 %1015.6 hPa16.1 kmWNW (290°)5.6 km/hMostly Cloudy
6:54 PM28.9 °C16.1 °C46 %1015.6 hPa16.1 kmNW (310°)7.4 km/hClear
7:54 PM25.6 °C18.3 °C64 %1015.6 hPa16.1 kmCalmClear
8:54 PM22.8 °C18.3 °C76 %1015.9 hPa16.1 kmCalmScattered Clouds
9:54 PM22.2 °C19.4 °C84 %1016.6 hPa16.1 kmCalmClear
10:54 PM21.1 °C18.9 °C87 %1016.9 hPa16.1 kmCalmClear
11:54 PM20 °C17.8 °C87 %1017.3 hPa16.1 kmCalmClear
Hourly data recorded from KSUS, located 0 kilometers away from St. Louis, Missouri







STORIES FROM OUR PARTNERS